Weather History for Rawlins, WY

Change the Weather History Date:

Monday, October 8, 2012

  Actual Average Record
Temperature  
Mean Temperature 49 °F 46 °F  
Max Temperature 62 °F 60 °F 79 °F (1996)
Min Temperature 36 °F 33 °F 5 °F (1970)
Degree Days  
Heating Degree Days 16 19  
Month to date heating degree days 176 139  
Since 1 July heating degree days 398 525  
Cooling Degree Days 0 0  
Month to date cooling degree days 0 0  
Year to date cooling degree days 419 186  
Moisture  
Dew Point 2 °F    
Average Humidity 16    
Maximum Humidity 25    
Minimum Humidity 6    
Precipitation  
Precipitation 0.00 in 0.02 in 0.21 in (2005)
Month to date precipitation T 0.23  
Year to date precipitation 3.87 7.75  
Sea Level Pressure  
Sea Level Pressure 29.88 in    
Wind  
Wind Speed 21 mph (WSW)    
Max Wind Speed 33 mph    
Max Gust Speed 41 mph    
Visibility 10 miles    
Events      
T = Trace of Precipitation, MM = Missing Value Source: NWS Daily Summary

Daily Weather History Graph

Daily Weather History Graph

Search for Another Location

Airport:

Trip Planner

Search our weather history database for the weather conditions in past years. The results will help you decide how hot, cold, wet, or windy it might be!

Date:

Astronomy

Oct. 08, 2012 Rise Set
Actual Time 7:13 AM MDT 6:37 PM MDT
Civil Twilight 6:46 AM MDT 7:05 PM MDT
Nautical Twilight 6:13 AM MDT 7:37 PM MDT
Astronomical Twilight 5:41 AM MDT 8:10 PM MDT
Moon No Moon Rise 2:34 PM MDT (10/8)
Length of Visible Light 12h 19m
Length of Day
11h 23m
Last Quarter, 46% of the Moon is Illuminated
Oct 8
Last Quarter
Oct 15
New
Oct 21
First Quarter
Oct 29
Full
Nov 6
Last Quarter

Hourly Weather History & Observations

Time (MDT) Temp. Windchill Dew Point Humidity Pressure Visibility Wind Dir Wind Speed Gust Speed Precip Events Conditions
12:53 AM 39.0 °F 34.0 °F 5.0 °F 24% 29.99 in 10.0 mi SSE 6.9 mph - N/A   Clear
1:53 AM 39.9 °F 31.8 °F 5.0 °F 23% 29.97 in 10.0 mi WSW 15.0 mph 24.2 mph N/A   Clear
2:53 AM 39.0 °F 29.9 °F 5.0 °F 24% 29.96 in 10.0 mi WSW 17.3 mph - N/A   Clear
3:53 AM 37.9 °F 27.9 °F 5.0 °F 25% 29.95 in 10.0 mi WSW 19.6 mph 26.5 mph N/A   Clear
4:53 AM 37.9 °F 28.5 °F 5.0 °F 25% 29.96 in 10.0 mi WSW 17.3 mph - N/A   Clear
5:53 AM 37.0 °F 26.2 °F 5.0 °F 26% 29.95 in 10.0 mi WSW 21.9 mph 28.8 mph N/A   Clear
6:53 AM 37.0 °F 27.4 °F 5.0 °F 26% 29.97 in 10.0 mi WSW 17.3 mph 26.5 mph N/A   Clear
7:53 AM 37.9 °F 28.5 °F 3.9 °F 24% 29.98 in 10.0 mi WSW 17.3 mph - N/A   Clear
8:53 AM 44.1 °F 37.1 °F 5.0 °F 20% 29.99 in 10.0 mi WSW 15.0 mph 23.0 mph N/A   Clear
9:53 AM 48.0 °F - 5.0 °F 17% 29.96 in 10.0 mi WSW 20.7 mph 31.1 mph N/A   Clear
10:53 AM 52.0 °F - 3.9 °F 14% 29.91 in 10.0 mi WSW 26.5 mph 35.7 mph N/A   Clear
11:53 AM 54.0 °F - 3.9 °F 13% 29.91 in 10.0 mi WSW 24.2 mph 34.5 mph N/A   Clear
12:53 PM 57.0 °F - 1.9 °F 11% 29.86 in 10.0 mi WSW 26.5 mph 35.7 mph N/A   Clear
1:53 PM 60.1 °F - 1.9 °F 10% 29.81 in 10.0 mi WSW 23.0 mph 33.4 mph N/A   Clear
2:53 PM 62.1 °F - 3.9 °F 10% 29.78 in 10.0 mi WSW 26.5 mph 35.7 mph N/A   Clear
3:53 PM 62.1 °F - -5.1 °F 7% 29.77 in 10.0 mi WSW 25.3 mph 36.8 mph N/A   Clear
4:53 PM 61.0 °F - -2.9 °F 8% 29.75 in 10.0 mi West 27.6 mph 38.0 mph N/A   Clear
5:53 PM 60.1 °F - -0.0 °F 9% 29.77 in 10.0 mi West 23.0 mph 31.1 mph N/A   Clear
6:53 PM 57.0 °F - -0.0 °F 10% 29.79 in 10.0 mi West 17.3 mph 26.5 mph N/A   Clear
8:53 PM 54.0 °F - 1.9 °F 12% 29.78 in 10.0 mi West 24.2 mph 29.9 mph N/A   Clear
9:53 PM 53.1 °F - -0.0 °F 11% 29.78 in 10.0 mi West 23.0 mph 31.1 mph N/A   Clear
10:53 PM 50.0 °F - -2.9 °F 11% 29.78 in 10.0 mi West 24.2 mph 29.9 mph N/A   Clear
11:53 PM 50.0 °F - -0.9 °F 12% 29.78 in 10.0 mi West 23.0 mph 31.1 mph N/A   Clear